CW2352 Weather Reports


Display with metric or nautical units.
time (UTC)temp
F
wind
direction
speed
MPH
gust
MPH
rain 1hr
in
rain 24hr
in
rain mn
in
humidity
%
barometer
mb
20260504081203 42 195 1.0 2.0 0.00 0.05 0.05 99 1013.7
20260504080703 42 190 1.0 3.0 0.00 0.05 0.05 99 1013.7
20260504080204 43 206 2.0 3.0 0.00 0.05 0.05 99 1013.9
20260504070203 45 204 2.0 3.0 0.00 0.05 0.05 99 1013.9
20260504060204 45 190 2.0 3.0 0.00 0.05 0.05 99 1013.9
20260504050703 45 236 1.0 2.0 0.00 0.05 0.05 99 1014.4
20260504050202 45 83 1.0 2.0 0.00 0.05 0.05 99 1014.5
20260504045703 45 224 2.0 2.0 0.00 0.05 0.05 99 1014.5
20260504045203 45 73 2.0 3.0 0.00 0.05 0.05 99 1014.5
20260504044703 45 14 1.0 2.0 0.00 0.05 0.05 99 1014.9
20260504044202 45 222 1.0 2.0 0.00 0.05 0.05 99 1014.5
20260504043203 45 206 1.0 2.0 0.00 0.05 0.05 99 1014.5
20260504042203 45 225 0.0 2.0 0.00 0.05 0.05 99 1014.5
20260504041703 46 184 1.0 3.0 0.00 0.05 0.05 99 1014.5
20260504041203 45 187 3.0 5.0 0.00 0.05 0.05 99 1014.5
20260504040702 46 197 1.0 3.0 0.00 0.05 0.05 99 1014.7
20260504040202 46 189 2.0 6.0 0.01 0.05 0.05 99 1014.9
20260504035703 46 204 3.0 5.0 0.01 0.05 0.05 99 1014.5
20260504035203 46 316 2.0 2.0 0.01 0.05 0.05 98 1015.1
20260504034703 46 186 2.0 3.0 0.01 0.05 0.05 98 1014.9
20260504034203 46 199 1.0 2.0 0.01 0.05 0.05 97 1014.9
20260504033702 46 103 0.0 1.0 0.01 0.05 0.05 97 1014.9
20260504033203 46 185 1.0 2.0 0.01 0.05 0.05 97 1014.7
20260504032703 46 290 1.0 3.0 0.02 0.05 0.05 97 1014.7
20260504031703 46 175 3.0 3.0 0.03 0.05 0.05 96 1014.4
20260504031203 46 167 1.0 5.0 0.03 0.05 0.05 96 1014.7
20260504030703 46 177 2.0 3.0 0.03 0.05 0.05 95 1015.2
20260504030203 46 287 1.0 2.0 0.03 0.04 0.04 94 1015.6
20260504025703 46 289 1.0 2.0 0.03 0.04 0.04 93 1015.6
20260504025203 47 300 2.0 3.0 0.03 0.04 0.04 92 1015.6
20260504024203 47 289 2.0 8.0 0.03 0.04 0.04 89 1015.2
20260504023703 47 327 3.0 9.0 0.04 0.04 0.04 88 1015.4
20260504023203 48 335 5.0 16.0 0.04 0.04 0.04 86 1015.6
20260504022203 48 303 7.0 15.0 0.03 0.03 0.03 83 1015.9
20260504021203 47 348 3.0 9.0 0.02 0.02 0.02 81 1015.6
20260504020703 47 297 2.0 3.0 0.02 0.02 0.02 81 1015.6
20260504020203 47 211 2.0 3.0 0.01 0.01 0.01 85 1015.6
20260504015703 47 292 1.0 3.0 0.01 0.01 0.01 85 1015.4
20260504015203 47 276 2.0 5.0 0.01 0.01 0.01 81 1015.2
20260504014703 48 327 4.0 10.0 0.01 0.01 0.01 74 1015.2
20260504014203 47 316 2.0 6.0 0.01 0.01 0.01 79 1015.2
20260504013703 49 287 5.0 9.0 0.00 0.00 0.00 74 1015.2
20260504013203 49 254 1.0 2.0 0.00 0.00 0.00 75 1015.2
20260504012703 49 281 1.0 3.0 0.00 0.00 0.00 68 1015.2
20260504012203 49 284 2.0 3.0 0.00 0.00 0.00 66 1015.2
20260504011703 49 298 1.0 3.0 0.00 0.00 0.00 65 1014.9
20260504005703 50 116 1.0 2.0 0.00 0.00 0.00 65 1014.7
20260504005203 50 276 1.0 2.0 0.00 0.00 0.00 62 1014.5
20260504004703 50 186 2.0 2.0 0.00 0.00 0.00 62 1014.5
20260504004203 51 197 0.0 2.0 0.00 0.00 0.00 58 1014.5
20260504003703 51 224 1.0 2.0 0.00 0.00 0.00 58 1014.5
20260504002703 51 33 0.0 3.0 0.00 0.00 0.00 58 1014.5
20260504002203 51 273 1.0 5.0 0.00 0.00 0.00 58 1014.5
20260504001703 51 318 4.0 9.0 0.00 0.00 0.00 58 1014.5
20260504001203 51 338 3.0 13.0 0.00 0.00 0.00 59 1014.7
20260504000703 51 9 10.0 17.0 0.00 0.00 0.00 58 1014.7
20260503235703 52 264 3.0 10.0 0.00 0.00 0.00 54 1014.7
20260503235203 52 311 2.0 5.0 0.00 0.00 0.00 55 1014.5
20260503234704 52 343 0.0 3.0 0.00 0.00 0.00 53 1014.5
20260503234203 52 295 2.0 3.0 0.00 0.00 0.00 51 1014.2
20260503233203 52 334 3.0 6.0 0.00 0.00 0.00 50 1014.2
20260503232703 52 337 4.0 6.0 0.00 0.00 0.00 50 1013.9
20260503231704 53 4 5.0 13.0 0.00 0.00 0.00 49 1014.2
20260503231204 53 349 3.0 8.0 0.00 0.00 0.00 49 1014.1
20260503230704 53 343 4.0 9.0 0.00 0.00 0.00 49 1014.0
20260503230203 53 343 6.0 12.0 0.00 0.00 0.00 49 1013.9
20260503225704 53 336 6.0 12.0 0.00 0.00 0.00 47 1014.2
20260503225203 53 8 5.0 12.0 0.00 0.00 0.00 46 1014.2
20260503224703 53 322 5.0 10.0 0.00 0.00 0.00 45 1013.9
20260503224203 53 330 5.0 12.0 0.00 0.00 0.00 45 1013.9
20260503223703 53 294 6.0 12.0 0.00 0.00 0.00 44 1014.1
20260503223204 53 337 2.0 10.0 0.00 0.00 0.00 45 1014.1
20260503222703 53 320 5.0 12.0 0.00 0.00 0.00 44 1014.1
20260503222203 53 316 5.0 10.0 0.00 0.00 0.00 45 1014.2
20260503221703 53 322 3.0 10.0 0.00 0.00 0.00 44 1014.2
20260503221204 53 309 3.0 10.0 0.00 0.00 0.00 44 1014.0
20260503220704 53 301 3.0 10.0 0.00 0.00 0.00 43 1013.9
20260503215703 54 301 6.0 13.0 0.00 0.00 0.00 43 1013.9
20260503215204 55 328 6.0 13.0 0.00 0.00 0.00 41 1013.9
20260503214704 55 283 3.0 16.0 0.00 0.00 0.00 42 1013.9
20260503214204 55 3 4.0 15.0 0.00 0.00 0.00 42 1013.7
20260503213203 55 312 7.0 14.0 0.00 0.00 0.00 39 1013.9
20260503212704 55 322 6.0 12.0 0.00 0.00 0.00 40 1013.9
20260503210704 55 318 4.0 15.0 0.00 0.00 0.00 41 1013.9
20260503210203 54 329 7.0 16.0 0.00 0.00 0.00 40 1014.0
20260503205703 54 345 7.0 17.0 0.00 0.00 0.00 39 1013.9
20260503204203 54 306 6.0 15.0 0.00 0.00 0.00 38 1013.9
20260503203703 54 303 9.0 15.0 0.00 0.00 0.00 38 1013.9
20260503202701 54 335 7.0 16.0 0.00 0.00 0.00 37 1014.2
20260503202201 54 323 6.0 18.0 0.00 0.00 0.00 37 1013.9
20260503201701 54 227 4.0 18.0 0.00 0.00 0.00 36 1014.0
20260503201201 54 277 6.0 18.0 0.00 0.00 0.00 35 1014.0
20260503200202 56 311 5.0 9.0 0.00 0.00 0.00 36 1013.9
20260503195701 54 291 7.0 23.0 0.00 0.00 0.00 34 1014.2
20260503195201 54 271 8.0 15.0 0.00 0.00 0.00 34 1014.3
20260503194702 55 338 9.0 21.0 0.00 0.00 0.00 33 1014.1
20260503194202 55 8 3.0 16.0 0.00 0.00 0.00 34 1014.2
20260503193701 54 277 7.0 17.0 0.00 0.00 0.00 33 1014.2
20260503193201 56 273 6.0 18.0 0.00 0.00 0.00 35 1014.2
20260503192702 55 301 7.0 17.0 0.00 0.00 0.00 33 1014.2
20260503191702 55 326 6.0 17.0 0.00 0.00 0.00 35 1014.4
20260503191202 54 263 6.0 16.0 0.00 0.00 0.00 34 1014.5
20260503190702 53 264 10.0 20.0 0.00 0.00 0.00 34 1014.9
20260503185701 54 355 9.0 15.0 0.00 0.00 0.00 35 1014.9
20260503185202 54 318 6.0 14.0 0.00 0.00 0.00 34 1014.9
20260503184702 54 260 7.0 16.0 0.00 0.00 0.00 34 1015.1
20260503183702 53 326 10.0 21.0 0.00 0.00 0.00 35 1015.0
20260503183202 53 234 6.0 20.0 0.00 0.00 0.00 36 1015.0
20260503182702 54 342 9.0 18.0 0.00 0.00 0.00 34 1015.3
20260503182202 53 292 7.0 14.0 0.00 0.00 0.00 34 1015.4
20260503181702 53 342 10.0 21.0 0.00 0.00 0.00 35 1015.6
20260503180702 53 294 9.0 22.0 0.00 0.00 0.00 34 1015.6
20260503175702 53 328 6.0 12.0 0.00 0.00 0.00 38 1015.6
20260503175202 51 292 7.0 17.0 0.00 0.00 0.00 37 1015.9
20260503174702 52 261 6.0 16.0 0.00 0.00 0.00 37 1015.6
20260503173702 53 308 6.0 13.0 0.00 0.00 0.00 37 1015.9
20260503173202 51 5 6.0 13.0 0.00 0.00 0.00 39 1016.1
20260503172701 52 338 7.0 13.0 0.00 0.00 0.00 38 1016.2
20260503172202 51 313 7.0 26.0 0.00 0.00 0.00 37 1015.9
20260503171702 50 346 6.0 17.0 0.00 0.00 0.00 39 1016.0
20260503171202 52 315 7.0 17.0 0.00 0.00 0.00 39 1016.0
20260503170702 52 253 7.0 17.0 0.00 0.00 0.00 38 1016.2
20260503170203 51 272 6.0 15.0 0.00 0.00 0.00 37 1016.1
20260503160202 50 320 10.0 16.0 0.00 0.00 0.00 45 1016.9
20260503150702 47 251 6.0 13.0 0.00 0.00 0.00 49 1017.6
20260503150203 47 331 6.0 14.0 0.00 0.00 0.00 50 1017.4
20260503140202 46 316 6.0 17.0 0.00 0.00 0.00 50 1017.9
20260503130704 44 327 7.0 15.0 0.00 0.00 0.00 53 1018.1
20260503120202 41 321 5.0 12.0 0.00 0.00 0.00 68 1018.3
20260503110204 38 299 1.0 5.0 0.00 0.00 0.00 75 1018.3
20260503100204 36 315 1.0 3.0 0.00 0.00 0.00 92 1018.3
20260503090203 36 213 0.0 2.0 0.00 0.00 0.00 93 1018.3